W5TTY Weather Reports


time (UTC)temp
F
wind
direction
speed
knots
gust
knots
rain 1hr
in
rain 24hr
in
rain mn
in
humidity
%
barometer
mb
20260508220830 78 106 0.0 0.9 0.00 0.38 0.38 88 1008.9
20260508220320 78 106 0.0 2.6 0.00 0.38 0.38 88 1009.0
20260508215850 78 106 0.9 2.6 0.00 0.38 0.38 88 1009.0
20260508215351 78 106 0.9 3.5 0.00 0.38 0.38 88 1009.1
20260508214836 78 96 1.7 7.0 0.00 0.38 0.38 88 1009.0
20260508214323 78 126 4.3 7.0 0.00 0.38 0.38 88 1009.0
20260508213857 78 148 2.6 6.1 0.00 0.38 0.38 89 1009.0
20260508213342 77 142 0.9 5.2 0.00 0.38 0.38 89 1009.0
20260508212849 77 187 2.6 5.2 0.00 0.38 0.38 89 1009.0
20260508212329 77 82 2.6 5.2 0.00 0.38 0.38 89 1009.1
20260508211900 77 76 1.7 4.3 0.00 0.38 0.38 89 1009.2
20260508211345 76 101 0.9 3.5 0.00 0.38 0.38 89 1009.3
20260508210826 77 115 1.7 6.1 0.00 0.38 0.38 89 1009.4
20260508210357 77 105 2.6 6.1 0.00 0.38 0.38 88 1009.6
20260508205845 77 85 1.7 3.5 0.00 0.38 0.38 89 1009.5
20260508205325 76 89 1.7 5.2 0.00 0.38 0.38 89 1009.6
20260508204827 76 84 0.9 5.2 0.00 0.38 0.38 89 1009.7
20260508204329 76 75 2.6 4.3 0.00 0.38 0.38 89 1009.7
20260508203837 76 76 3.5 7.8 0.00 0.38 0.38 89 1009.8
20260508203347 76 84 6.1 7.8 0.00 0.38 0.38 89 1009.9
20260508202831 76 67 1.7 4.3 0.00 0.38 0.38 89 1009.9
20260508202335 76 69 1.7 6.1 0.00 0.38 0.38 89 1010.1
20260508201823 76 84 4.3 7.8 0.00 0.38 0.38 89 1010.1
20260508201326 76 82 2.6 7.8 0.00 0.38 0.38 89 1010.1
20260508200857 76 44 0.9 6.1 0.00 0.38 0.38 89 1010.1
20260508200343 75 53 2.6 6.1 0.00 0.38 0.38 89 1010.2
20260508195828 75 94 1.7 5.2 0.00 0.38 0.38 89 1010.2
20260508195325 75 49 2.6 7.0 0.00 0.38 0.38 89 1010.3
20260508194829 75 5 3.5 7.0 0.00 0.38 0.38 89 1010.3
20260508194336 75 63 3.5 7.8 0.00 0.38 0.38 89 1010.4
20260508193837 75 61 5.2 7.8 0.00 0.38 0.38 89 1010.4
20260508193318 74 94 3.5 6.1 0.00 0.38 0.38 89 1010.5
20260508192831 74 61 1.7 5.2 0.00 0.38 0.38 89 1010.7
20260508192354 74 46 2.6 6.1 0.00 0.38 0.38 89 1010.7
20260508191819 74 94 3.5 5.2 0.00 0.38 0.38 89 1010.8
20260508191321 73 54 0.9 4.3 0.00 0.38 0.38 89 1010.8
20260508190832 73 56 2.6 4.3 0.00 0.38 0.38 89 1011.0
20260508190337 73 118 2.6 5.2 0.00 0.38 0.38 89 1011.1
20260508185824 72 102 1.7 3.5 0.00 0.38 0.38 89 1011.3
20260508185327 72 101 1.7 4.3 0.00 0.38 0.38 89 1011.3
20260508184829 72 101 2.6 4.3 0.00 0.38 0.38 89 1011.4
20260508184332 72 82 2.6 4.3 0.00 0.38 0.38 89 1011.4
20260508183830 72 79 1.7 4.3 0.00 0.38 0.38 89 1011.5
20260508183335 72 167 2.6 5.2 0.00 0.38 0.38 89 1011.5
20260508182819 72 86 2.6 5.2 0.00 0.38 0.38 89 1011.5
20260508182352 72 65 3.5 5.2 0.00 0.38 0.38 89 1011.6
20260508181832 72 71 1.7 5.2 0.00 0.38 0.38 89 1011.6
20260508181338 72 77 2.6 7.0 0.00 0.38 0.38 89 1011.6
20260508180839 71 84 3.5 5.2 0.00 0.38 0.38 89 1011.7
20260508180331 71 109 1.7 6.1 0.00 0.38 0.38 89 1011.7
20260508175837 71 128 3.5 6.1 0.00 0.38 0.38 89 1011.8
20260508175340 71 67 1.7 5.2 0.00 0.38 0.38 89 1011.9
20260508174822 70 54 1.7 5.2 0.00 0.38 0.38 89 1011.9
20260508174354 70 38 1.7 5.2 0.00 0.38 0.38 89 1012.0
20260508173818 70 19 3.5 5.2 0.00 0.38 0.38 89 1012.1
20260508173322 70 12 2.6 5.2 0.00 0.38 0.38 89 1012.2
20260508172826 70 54 3.5 5.2 0.00 0.38 0.38 89 1012.1
20260508172331 70 53 1.7 7.0 0.00 0.38 0.38 89 1012.1
20260508171836 69 35 2.6 7.0 0.00 0.38 0.38 89 1012.1
20260508171317 69 57 1.7 7.0 0.00 0.38 0.38 89 1012.2
20260508170849 68 5 3.5 7.0 0.00 0.38 0.38 89 1012.2
20260508170331 68 45 3.5 7.8 0.00 0.38 0.38 89 1012.3
20260508165838 67 58 2.6 7.8 0.00 0.38 0.38 89 1012.3
20260508165321 67 61 3.5 7.0 0.00 0.38 0.38 89 1012.4
20260508164826 66 40 2.6 5.2 0.00 0.38 0.38 89 1012.4
20260508164358 66 47 2.6 7.0 0.00 0.38 0.38 89 1012.5
20260508163842 66 67 2.6 7.0 0.00 0.38 0.38 89 1012.6
20260508163327 66 49 2.6 4.3 0.00 0.38 0.38 88 1012.8
20260508162831 66 65 1.7 5.2 0.00 0.38 0.38 88 1012.8
20260508162329 66 88 2.6 4.3 0.00 0.38 0.38 88 1012.9
20260508161836 65 58 3.5 4.3 0.00 0.38 0.38 88 1013.0
20260508161323 65 40 0.9 3.5 0.00 0.38 0.38 88 1013.0
20260508160850 65 67 2.6 5.2 0.00 0.38 0.38 88 1012.9
20260508160317 65 69 2.6 5.2 0.00 0.38 0.38 88 1013.1
20260508155821 65 54 1.7 7.0 0.00 0.38 0.38 88 1013.0
20260508155331 65 78 2.6 7.0 0.00 0.38 0.38 88 1013.1
20260508154837 64 32 4.3 7.0 0.00 0.38 0.38 88 1013.1
20260508154343 64 77 3.5 7.8 0.00 0.38 0.38 88 1013.1
20260508153824 64 79 4.3 7.8 0.00 0.38 0.38 88 1013.4
20260508153357 64 96 4.3 7.8 0.00 0.38 0.38 88 1013.4
20260508152843 64 100 3.5 7.8 0.00 0.38 0.38 88 1013.3
20260508152324 64 90 3.5 7.8 0.00 0.38 0.38 88 1013.4
20260508151834 64 96 3.5 7.0 0.00 0.38 0.38 88 1013.4
20260508151338 64 107 2.6 5.2 0.00 0.38 0.38 88 1013.5
20260508150823 63 73 0.9 6.1 0.00 0.38 0.38 87 1013.6
20260508150329 63 78 3.5 6.1 0.00 0.38 0.38 87 1013.6
20260508145905 63 72 3.5 7.0 0.00 0.38 0.38 87 1013.6
20260508145346 63 84 3.5 7.0 0.00 0.38 0.38 87 1013.6
20260508144831 63 61 2.6 6.1 0.00 0.38 0.38 87 1013.5
20260508144338 63 55 2.6 7.8 0.00 0.38 0.38 87 1013.5
20260508143826 63 80 3.5 7.0 0.00 0.38 0.38 87 1013.6
20260508143331 63 86 2.6 7.0 0.00 0.38 0.38 87 1013.5
20260508142820 63 90 3.5 7.0 0.00 0.38 0.38 87 1013.6
20260508142326 63 88 3.5 5.2 0.00 0.38 0.38 87 1013.7
20260508141852 63 84 2.6 7.0 0.00 0.38 0.38 87 1013.7
20260508141350 63 113 4.3 7.0 0.00 0.38 0.38 87 1013.6
20260508140830 63 81 2.6 4.3 0.00 0.38 0.38 87 1013.6
20260508140339 63 72 3.5 5.2 0.00 0.38 0.38 87 1013.5
20260508135825 63 101 2.6 7.0 0.00 0.38 0.38 87 1013.6
20260508135329 63 99 2.6 7.0 0.00 0.38 0.38 86 1013.4
20260508134837 63 74 2.6 7.0 0.00 0.38 0.38 86 1013.4
20260508134318 63 68 4.3 7.0 0.00 0.38 0.38 86 1013.3
20260508133851 63 65 1.7 5.2 0.00 0.38 0.38 87 1013.5
20260508133353 63 64 3.5 5.2 0.00 0.38 0.38 87 1013.5
20260508132841 63 106 1.7 7.0 0.00 0.38 0.38 86 1013.7
20260508132318 63 92 3.5 7.0 0.00 0.38 0.38 87 1013.7
20260508131829 63 100 2.6 5.2 0.00 0.38 0.38 86 1013.5
20260508131355 63 130 0.9 7.0 0.00 0.38 0.38 86 1013.5
20260508130820 63 102 3.5 7.0 0.00 0.38 0.38 86 1013.5
20260508130321 62 101 2.6 7.0 0.00 0.38 0.38 86 1013.3
20260508125825 62 103 3.5 7.0 0.00 0.38 0.38 86 1013.2
20260508125328 62 134 3.5 7.8 0.00 0.38 0.38 86 1013.2
20260508124833 62 126 4.3 7.8 0.00 0.38 0.38 86 1013.3
20260508124317 62 86 2.6 7.8 0.00 0.38 0.38 86 1013.3
20260508123829 62 98 4.3 7.8 0.00 0.38 0.38 86 1013.4
20260508123332 62 121 3.5 7.8 0.00 0.38 0.38 86 1013.7
20260508122838 62 99 4.3 7.0 0.00 0.38 0.38 86 1013.8
20260508122322 62 94 3.5 7.0 0.00 0.38 0.38 86 1013.8
20260508121824 61 71 2.6 7.0 0.00 0.38 0.38 86 1014.0
20260508121328 61 65 2.6 7.0 0.00 0.38 0.38 86 1014.0
20260508120902 61 67 0.9 5.2 0.00 0.38 0.38 86 1014.2
20260508120349 61 42 1.7 2.6 0.02 0.38 0.38 86 1014.1
20260508115835 61 38 1.7 5.2 0.15 0.38 0.38 85 1014.1
20260508115319 61 31 2.6 5.2 0.21 0.38 0.38 85 1014.1
20260508114819 61 41 3.5 7.8 0.35 0.38 0.38 85 1013.9
20260508114324 61 78 4.3 8.7 0.38 0.38 0.38 85 1013.8
20260508113836 61 78 6.1 8.7 0.38 0.38 0.38 85 1013.8
20260508113344 61 52 4.3 7.8 0.38 0.38 0.38 85 1013.8
20260508112828 61 63 3.5 7.8 0.38 0.38 0.38 85 1013.8
20260508112336 61 42 4.3 7.8 0.38 0.38 0.38 85 1013.9
20260508111823 62 36 3.5 7.8 0.38 0.38 0.38 85 1014.0
20260508111324 62 55 3.5 7.8 0.38 0.38 0.38 85 1013.9
20260508110830 62 33 3.5 7.0 0.38 0.38 0.38 85 1014.0
20260508032337 62 20 3.5 7.8 0.00 0.00 0.00 81 1014.0
20260508031822 62 37 4.3 7.8 0.00 0.00 0.00 81 1013.9
20260508031324 62 47 2.6 5.2 0.00 0.00 0.00 81 1014.1
20260508030823 62 349 2.6 4.3 0.00 0.00 0.00 81 1014.7
20260508030354 62 17 2.6 3.5 0.00 0.00 0.00 81 1014.4
20260508025819 62 36 2.6 3.5 0.00 0.00 0.00 81 1014.5
20260508025342 63 44 2.6 4.3 0.00 0.00 0.00 81 1014.2
20260508024828 63 50 2.6 4.3 0.00 0.00 0.00 81 1014.0
20260508024335 63 40 2.6 4.3 0.00 0.00 0.00 81 1014.0
20260508023820 63 38 2.6 4.3 0.00 0.00 0.00 81 1014.0
20260508023327 63 348 1.7 7.0 0.00 0.00 0.00 81 1014.6
20260508022831 63 347 2.6 7.0 0.00 0.00 0.00 81 1014.6
20260508022341 63 330 3.5 5.2 0.00 0.00 0.00 81 1014.6
20260508021826 63 35 2.6 4.3 0.00 0.00 0.00 81 1014.3
20260508021324 63 66 1.7 4.3 0.00 0.00 0.00 81 1013.9
20260508020830 63 52 2.6 4.3 0.00 0.00 0.00 80 1013.7
20260508020318 63 96 3.5 6.1 0.00 0.00 0.00 80 1013.5
20260508015826 63 94 3.5 6.1 0.00 0.00 0.00 81 1013.6
20260508015330 63 92 2.6 5.2 0.00 0.00 0.00 81 1013.8
20260508014835 63 89 2.6 5.2 0.00 0.00 0.00 81 1013.9
20260508014320 63 90 1.7 3.5 0.00 0.00 0.00 81 1014.1
20260508013833 63 90 1.7 5.2 0.00 0.00 0.00 80 1014.1
20260508013337 63 85 1.7 5.2 0.00 0.00 0.00 80 1014.0
20260508012846 64 94 2.6 5.2 0.00 0.00 0.00 80 1014.0
20260508012330 64 43 0.9 2.6 0.00 0.00 0.00 80 1014.2
20260508011821 64 39 1.7 4.3 0.00 0.00 0.00 80 1014.2
20260508011328 64 38 1.7 4.3 0.00 0.00 0.00 80 1014.3
20260508010837 64 41 2.6 3.5 0.00 0.00 0.00 80 1014.4
20260508010347 64 41 0.9 3.5 0.00 0.00 0.00 80 1014.3
20260508005831 64 41 1.7 4.3 0.00 0.00 0.00 80 1014.5
20260508005318 64 32 1.7 3.5 0.00 0.00 0.00 80 1014.4
20260508004826 64 12 1.7 3.5 0.00 0.00 0.00 80 1014.7
20260508004329 64 9 0.9 4.3 0.00 0.00 0.00 80 1014.9
20260508003835 64 19 2.6 4.3 0.00 0.00 0.00 80 1015.0
20260508003323 64 24 2.6 4.3 0.00 0.00 0.00 80 1014.8
20260508002833 65 22 2.6 4.3 0.00 0.00 0.00 80 1014.5
20260508002318 65 11 2.6 5.2 0.00 0.00 0.00 81 1014.9
20260508001826 65 338 2.6 4.3 0.00 0.00 0.00 81 1015.0
20260508001331 65 5 1.7 3.5 0.00 0.00 0.00 81 1014.7
20260508000833 65 5 1.7 5.2 0.00 0.00 0.00 81 1014.8
20260508000320 65 5 2.6 5.2 0.00 0.00 0.00 81 1014.9
20260507235834 65 355 2.6 5.2 0.00 0.00 0.00 81 1014.7
20260507235341 65 355 3.5 5.2 0.00 0.00 0.00 80 1014.8
20260507234827 65 360 2.6 4.3 0.00 0.00 0.00 80 1014.9
20260507234333 65 348 1.7 5.2 0.00 0.00 0.00 81 1014.9
20260507233821 65 339 2.6 7.0 0.00 0.00 0.00 81 1015.0
20260507233326 65 346 2.6 7.0 0.00 0.00 0.00 81 1015.0
20260507232900 65 19 2.6 7.8 0.00 0.00 0.00 81 1015.0
20260507232327 65 333 2.6 7.8 0.00 0.00 0.00 81 1015.1
20260507231831 66 15 3.5 7.8 0.00 0.00 0.00 81 1014.9
20260507231337 65 355 3.5 7.8 0.00 0.00 0.00 81 1014.9
20260507230826 65 5 5.2 7.8 0.00 0.00 0.00 81 1014.7
20260507230335 65 26 5.2 7.8 0.00 0.00 0.00 81 1014.7
20260507225844 65 44 3.5 6.1 0.00 0.00 0.00 81 1014.7
20260507225348 66 55 2.6 7.0 0.00 0.00 0.00 81 1015.0
20260507224836 66 49 2.6 6.1 0.00 0.00 0.00 81 1015.2
20260507224324 66 32 4.3 8.7 0.00 0.00 0.00 82 1015.2
20260507223827 65 23 4.3 8.7 0.00 0.00 0.00 82 1015.3
20260507223337 65 26 4.3 7.8 0.00 0.00 0.00 82 1015.2
20260507222851 65 24 4.3 7.8 0.00 0.00 0.00 81 1015.2
20260507222333 65 342 3.5 13.0 0.00 0.00 0.00 81 1015.3
20260507221820 65 24 5.2 13.0 0.00 0.00 0.00 81 1015.2
20260507221349 66 322 7.8 13.0 0.00 0.00 0.00 81 1015.0